Aberdeen, United Kingdom

8:09 PM GMT on November 19, 2019 (GMT +0000)
Dyce

Weather History for EGPD - August, 2019

Change the Weather History Date:

Sunday, August 25, 2019

  Actual Average Record
Temperature  
Mean Temperature 62 °F -  
Max Temperature 75 °F 61 °F 68 °F (2008)
Min Temperature 49 °F 46 °F 35 °F (2014)
Degree Days  
Heating Degree Days 3    
Growing Degree Days 12 (Base 50)    
Moisture  
Dew Point 55 °F    
Average Humidity 77    
Maximum Humidity 100    
Minimum Humidity 43    
Precipitation  
Precipitation 0.00 in 0.09 in - ()
Sea Level Pressure  
Sea Level Pressure 30.06 in    
Wind  
Wind Speed 5 mph ()    
Max Wind Speed 17 mph    
Max Gust Speed -    
Visibility 6.2 miles    
Events Fog    
Averages and records for this station are not official NWS values.
T = Trace of Precipitation, MM = Missing Value Source: Averaged Metar Reports

Daily Weather History Graph

Daily Weather History Graph

Search for Another Location

Airport or City:

Astronomy

Aug. 25, 2019 Rise Set
Actual Time 5:55 AM BST 8:25 PM BST
Civil Twilight 5:12 AM BST 9:07 PM BST
Nautical Twilight 4:16 AM BST 10:02 PM BST
Astronomical Twilight 3:04 AM BST 11:13 PM BST
Moon No Moon Rise 5:14 PM BST (8/25)
Length of Visible Light 15h 55m
Length of Day
14h 30m
Waning Crescent, 31% of the Moon is Illuminated
Aug 25
Waning Crescent
Aug 30
New
Sep 6
First Quarter
Sep 14
Full
Sep 22
Last Quarter

Hourly Weather History & Observations

Time (BST) Temp. Dew Point Humidity Pressure Visibility Wind Dir Wind Speed Gust Speed Precip Events Conditions
12:00 AM 57 °F 55 °F 89% 30.07 in 5 mi East 1.2 mph - -   Light Haze
12:20 AM 55.4 °F 55.4 °F 100% 30.06 in 4.3 mi South 4.6 mph - N/A   Unknown
12:50 AM 57.2 °F 55.4 °F 94% 30.06 in 3.7 mi Variable 2.3 mph - N/A   Unknown
1:00 AM 58 °F 56 °F 90% 30.07 in 5 mi WNW 3.5 mph - -   Light Haze
1:20 AM 55.4 °F 53.6 °F 94% 30.06 in 3.1 mi North 5.8 mph - N/A   Haze
1:50 AM 55.4 °F 53.6 °F 94% 30.06 in - Variable 1.2 mph - N/A   Haze
2:00 AM 56 °F 54 °F 92% 30.07 in 3 mi NNE 1.2 mph - -   Mist
2:20 AM 53.6 °F 53.6 °F 100% 30.06 in - Variable 3.5 mph - N/A   Mist
2:50 AM 55.4 °F 53.6 °F 94% 30.06 in 3.7 mi SW 4.6 mph - N/A   Unknown
3:00 AM 56 °F 55 °F 97% 30.07 in 4 mi WSW 4.6 mph - -   Mist
3:20 AM 53.6 °F 53.6 °F 100% 30.06 in - North 3.5 mph - N/A   Mist
3:50 AM 53.6 °F 53.6 °F 100% 30.06 in - NNW 3.5 mph - N/A   Mist
4:00 AM 54 °F 53 °F 95% 30.07 in 2 mi North 3.5 mph - -   Mist
4:20 AM 53.6 °F 53.6 °F 100% 30.06 in 1.6 mi Variable 1.2 mph - N/A   Mist
4:50 AM 53.6 °F 51.8 °F 94% 30.06 in - Variable 1.2 mph - N/A Fog Fog
5:00 AM 54 °F 53 °F 97% 30.07 in 2 mi ESE 1.2 mph - -   Mist
5:20 AM 51.8 °F 50.0 °F 94% 30.06 in 0.9 mi ENE 2.3 mph - N/A   Partly Cloudy
5:50 AM 51.8 °F 50.0 °F 94% 30.06 in 1.1 mi West 2.3 mph - N/A   Scattered Clouds
6:00 AM 53 °F 52 °F 96% 30.08 in 4 mi West 2.3 mph - -   Mist
6:20 AM 50.0 °F 50.0 °F 100% 30.06 in 0.1 mi NNE 3.5 mph - N/A Fog Fog
6:50 AM 50.0 °F 50.0 °F 100% 30.09 in 0.1 mi SSE 2.3 mph - N/A Fog Fog
7:00 AM 51 °F 50 °F 96% 30.09 in 0 mi SSE 1.2 mph - - Fog Fog
7:20 AM 53.6 °F 51.8 °F 94% 30.09 in 3.1 mi Variable 2.3 mph - N/A   Mist
7:50 AM 55.4 °F 53.6 °F 94% 30.09 in 5.6 mi North 3.5 mph - N/A Fog Unknown
8:00 AM 54 °F 54 °F 98% 30.09 in 4 mi NNE 4.6 mph - - Fog Fog
8:20 AM 55.4 °F 53.6 °F 94% 30.09 in 3.7 mi North 5.8 mph - N/A   Unknown
8:50 AM 57.2 °F 55.4 °F 94% 30.09 in 5.6 mi Variable 2.3 mph - N/A Fog Unknown
9:20 AM 60.8 °F 55.4 °F 82% 30.09 in - Variable 1.2 mph - N/A   Clear
9:50 AM 64.4 °F 59.0 °F 83% 30.09 in 6.2 mi Variable 1.2 mph - N/A   Unknown
10:00 AM 65 °F 60 °F 78% 30.09 in - North 1.2 mph - -  
10:20 AM 68.0 °F 59.0 °F 73% 30.09 in 6.2 mi Variable 2.3 mph - N/A   Unknown
10:50 AM 69.8 °F 60.8 °F 73% 30.09 in 6.2 mi Variable 3.5 mph - N/A   Unknown
11:00 AM 71 °F 60 °F 60% 30.09 in 9 mi SE 3.5 mph - -   Scattered Clouds
11:20 AM 71.6 °F 59.0 °F 64% 30.09 in 6.2 mi ESE 5.8 mph - N/A   Unknown
11:50 AM 69.8 °F 60.8 °F 73% 30.09 in 6.2 mi ESE 9.2 mph - N/A   Unknown
12:20 PM 71.6 °F 60.8 °F 69% 30.09 in 6.2 mi SE 8.1 mph - N/A   Unknown
12:50 PM 73.4 °F 59.0 °F 61% 30.09 in 6.2 mi ESE 8.1 mph - N/A   Unknown
1:20 PM 73.4 °F 57.2 °F 57% 30.06 in 6.2 mi ESE 9.2 mph - N/A   Unknown
1:50 PM 73.4 °F 57.2 °F 57% 30.06 in 6.2 mi SE 9.2 mph - N/A   Unknown
2:00 PM 75 °F 57 °F 43% 30.08 in 17 mi SSE 8.1 mph - -  
2:20 PM 75.2 °F 57.2 °F 53% 30.06 in - SSE 12.7 mph - N/A   Clear
2:50 PM 75.2 °F 57.2 °F 53% 30.06 in - SSE 16.1 mph - N/A   Clear
3:00 PM 74 °F 57 °F 44% 30.06 in 22 mi South 15.0 mph - -  
3:20 PM 75.2 °F 57.2 °F 53% 30.06 in - South 16.1 mph - N/A   Clear
3:50 PM 73.4 °F 57.2 °F 57% 30.06 in 6.2 mi SSE 17.3 mph - N/A   Unknown
4:00 PM 74 °F 58 °F 47% 30.06 in 15 mi South 15.0 mph - -  
4:20 PM 73.4 °F 57.2 °F 57% 30.06 in 6.2 mi South 15.0 mph - N/A   Unknown
4:50 PM 71.6 °F 57.2 °F 60% 30.06 in 6.2 mi SSE 13.8 mph - N/A   Unknown
5:00 PM 71 °F 56 °F 50% 30.05 in 8 mi South 13.8 mph - -  
5:20 PM 71.6 °F 59.0 °F 64% 30.06 in 6.2 mi South 13.8 mph - N/A   Unknown
5:50 PM 71.6 °F 57.2 °F 60% 30.04 in - SSE 11.5 mph - N/A   Clear
6:00 PM 70 °F 57 °F 55% 30.04 in 12 mi South 10.4 mph - -  
6:20 PM 69.8 °F 57.2 °F 64% 30.04 in 6.2 mi SSE 12.7 mph - N/A   Unknown
6:50 PM 69.8 °F 57.2 °F 64% 30.04 in 6.2 mi SE 10.4 mph - N/A   Unknown
7:00 PM 69 °F 57 °F 56% 30.04 in 16 mi SSE 9.2 mph - -  
7:20 PM 68.0 °F 55.4 °F 64% 30.04 in 6.2 mi SE 8.1 mph - N/A   Unknown
7:50 PM 66.2 °F 55.4 °F 68% 30.04 in 6.2 mi SSE 6.9 mph - N/A   Unknown
8:00 PM 65 °F 56 °F 64% 30.05 in 14 mi SSE 4.6 mph - -  
8:20 PM 64.4 °F 55.4 °F 73% 30.04 in 6.2 mi SE 6.9 mph - N/A   Unknown
8:50 PM 62.6 °F 55.4 °F 77% 30.06 in 6.2 mi SE 6.9 mph - N/A   Unknown
9:00 PM 63 °F 56 °F 70% 30.05 in 10 mi SE 5.8 mph - -  
9:20 PM 62.6 °F 55.4 °F 77% 30.06 in 6.2 mi SSE 5.8 mph - N/A   Unknown
9:50 PM 62.6 °F 55.4 °F 77% 30.06 in 6.2 mi SSE 8.1 mph - N/A   Unknown
10:00 PM 62 °F 54 °F 68% 30.05 in 13 mi South 8.1 mph - -  
10:20 PM 64.4 °F 55.4 °F 73% 30.04 in 6.2 mi SSE 8.1 mph - N/A   Unknown
10:50 PM 62.6 °F 53.6 °F 72% 30.04 in 6.2 mi ESE 4.6 mph - N/A   Unknown
11:00 PM 62 °F 54 °F 66% 30.04 in 16 mi ESE 4.6 mph - -  
11:20 PM 62.6 °F 53.6 °F 72% 30.04 in 6.2 mi ESE 4.6 mph - N/A   Unknown
11:50 PM 60.8 °F 55.4 °F 82% 30.04 in 6.2 mi SE 5.8 mph - N/A   Unknown